Regional Weather Roundup
Issued by NWS

Home | Current Version | Previous Version | Text Only | Print | Product List | Glossary Off
Versions: 1 2 3 4 5 6 7 8 9 10 11 12 13 14 15 16 17 18 19 20 21 22 23 24 25 26 27 28 29 30 31 32 33 34 35 36 37 38 39 40 41 42 43 44 45 46 47 48 49 50

000
ASUS43 KOAX 240510
RWRNE

WEATHER ROUNDUP FOR NEBRASKA
NATIONAL WEATHER SERVICE OMAHA NE
1200 AM CDT TUE OCT 24 2017

NOTES: SATELLITE DATA IS BEING USED TO AUGMENT CLOUD COVER ABOVE
       12000 FEET.
       "FAIR" INDICATES FEW OR NO CLOUDS BELOW 12,000 FEET WITH NO
       SIGNIFICANT WEATHER AND/OR OBSTRUCTIONS TO VISIBILITY.


NEZ001>004-019>022-054>056-240600-
NEBRASKA PANHANDLE

CITY           SKY/WX    TMP DP  RH WIND       PRES   REMARKS
SCOTTSBLUFF    CLEAR     43  18  36 NW12      30.50S
ALLIANCE       CLEAR     28  19  69 W13       30.45S HAZE    WCI  17
CHADRON        CLEAR     41  19  41 NW12      30.47R
GORDON         FAIR      42  23  46 NW13      30.42R
KIMBALL        CLEAR     41  18  39 NW12G18   30.52S
SIDNEY         CLEAR     37  18  46 NW10      30.49R WCI  30
$$

NEZ057>060-069>072-079>082-240600-
SOUTHWEST NEBRASKA

CITY           SKY/WX    TMP DP  RH WIND       PRES   REMARKS
NORTH PLATTE   CLEAR     42  24  49 NW14      30.36S
IMPERIAL       CLEAR     39  21  48 W10       30.42R WCI  32
LEXINGTON      CLEAR     48  23  37 NW16      30.31S
MCCOOK         CLEAR     43  22  43 W12       30.37S
OGALLALA       CLEAR     45  21  39 NW13      30.42S
$$

NEZ005>010-023>029-035>040-094-240600-
NORTH CENTRAL NEBRASKA

CITY           SKY/WX    TMP DP  RH WIND       PRES   REMARKS
VALENTINE      CLEAR     49  23  36 NW17G25   30.31S
AINSWORTH      PTCLDY    47  25  42 NW17G26   30.29R
BROKEN BOW     CLEAR     50  23  34 NW21G32   30.26S
O`NEILL        CLOUDY    48  30  49 NW16G25   30.20F
ORD            PTCLDY    48  27  44 NW16      30.21F
THEDFORD       CLEAR     47  24  41 NW15G21   30.33S
$$

NEZ041-046>049-061>064-073>077-083>087-240600-
SOUTH CENTRAL NEBRASKA

CITY           SKY/WX    TMP DP  RH WIND       PRES   REMARKS
GRAND ISLAND   PTCLDY    45  30  55 W13       30.22S
AURORA         MOCLDY    48  29  47 NW12      30.19F
HASTINGS       CLEAR     46  27  47 NW14      30.23F
HEBRON         PTCLDY    51  31  46 NW12G18   30.20S
HOLDREGE       CLEAR     49  25  39 NW13G22   30.28S
KEARNEY        CLEAR     48  24  39 NW16      30.26S
YORK           MOCLDY    48  32  53 NW16G23   30.16F
$$

NEZ011>018-030>034-042>045-240600-
NORTHEAST NEBRASKA

CITY           SKY/WX    TMP DP  RH WIND       PRES   REMARKS
NORFOLK        CLOUDY    52  28  39 NW24G40   30.10S
ALBION         PTCLDY    49  31  49 NW15      30.16F
BLAIR          CLOUDY    51  35  53 NW10G17   30.05S
COLUMBUS       CLOUDY    48  33  56 W15       30.13F
FREMONT        PTCLDY    47  36  66 W15       30.08F
TEKAMAH        MOCLDY    51  33  50 NW16G25   30.04F
WAYNE          PTCLDY    51  27  40 NW18G31   30.08S
$$

NEZ050>053-065>068-078-088>093-240600-
SOUTHEAST NEBRASKA

CITY           SKY/WX    TMP DP  RH WIND       PRES   REMARKS
LINCOLN        CLOUDY    52  33  48 MISG      30.13S
OMAHA EPPLEY   CLOUDY    53  33  46 NW20G25   30.03F
BEATRICE       MOCLDY    49  34  56 NW16      30.14S
FALLS CITY     LGT RAIN  51  34  52 NW17G24   30.07F
NEBRASKA CITY  CLOUDY    51  36  55 NW18      30.07F
PLATTSMOUTH    CLOUDY    52  35  53 W17G28    30.05F
$$

NEZ044-045-051>053-067-240600-
OMAHA AREA

CITY           SKY/WX    TMP DP  RH WIND       PRES   REMARKS
OMAHA EPPLEY   CLOUDY    53  33  46 NW20G25   30.03F
BLAIR          CLOUDY    51  35  53 NW10G17   30.05S
FREMONT        PTCLDY    47  36  66 W15       30.08F
MILLARD        CLOUDY    53  36  52 W12G22    30.06F
OFFUTT AFB     CLOUDY    53  33  47 NW15G24   30.04F
PLATTSMOUTH    CLOUDY    52  35  53 W17G28    30.05F
WAHOO          FAIR      50  35  57 W14G20    30.09S
$$



USA.gov is the U.S. government's official web portal to all federal, state and local government web resources and services.